Back to catalog

STARLINK-11197

AliveCommunicationsVLEO
NORAD 60186·PAYLOAD·🇺🇸 United States

Launched Jul 3, 2024 from Cape Canaveral Space Force Station

Loading…

Next Passes (next 24 hours)

TLE

FreshSource: CelesTrak SupGP

Epoch: Sep 14, 2026, 14:19 UTC

1 60186C 24124D   26257.59701389  .00090471  00000+0  74523-3 0  2579
2 60186  53.1569 309.7596 0001219  66.4771  74.9687 15.69664600    10

Track STARLINK-11197 in real time with AllMySat

Download on the App Store